#Datum;Uhrzeit;WR;Pac;DaySum;Status;WR;Pac;DaySum;Status;Pdc1;Udc;Temp;WR;Pac;DaySum;Status;Pdc1;Udc;Temp;WR;Pac;DaySum;Status;Pdc1;Udc;Temp;WR;Pac;DaySum;Status;Pdc1;Pdc2;Udc1;Udc2;Temp;WR;Pac;DaySum;Status;Pdc1;Pdc2;Udc1;Udc2;Temp;WR;Pac;DaySum;Status;Pdc1;Udc;Temp;WR;Pac;DaySum;Status;Pdc1;Udc;Temp;WR;Pac;DaySum;Status;Pdc1;Udc;Temp
12.12.19;23:55:00;1;292;9116;0;2;0;1744;0;0;0;0;3;0;1004;0;0;0;0;4;0;1391;0;0;0;0;5;0;3904;0;0;0;0;0;0;6;0;2752;0;0;0;0;0;0;7;0;1680;0;0;0;0;8;0;1696;0;0;0;0;9;0;854;0;0;0;0
12.12.19;23:50:00;1;314;9091;0;2;0;1744;0;0;0;0;3;0;1004;0;0;0;0;4;0;1391;0;0;0;0;5;0;3904;0;0;0;0;0;0;6;0;2752;0;0;0;0;0;0;7;0;1680;0;0;0;0;8;0;1696;0;0;0;0;9;0;854;0;0;0;0
12.12.19;23:45:00;1;337;9065;0;2;0;1744;0;0;0;0;3;0;1004;0;0;0;0;4;0;1391;0;0;0;0;5;0;3904;0;0;0;0;0;0;6;0;2752;0;0;0;0;0;0;7;0;1680;0;0;0;0;8;0;1696;0;0;0;0;9;0;854;0;0;0;0
12.12.19;23:40:00;1;347;9036;0;2;0;1744;0;0;0;0;3;0;1004;0;0;0;0;4;0;1391;0;0;0;0;5;0;3904;0;0;0;0;0;0;6;0;2752;0;0;0;0;0;0;7;0;1680;0;0;0;0;8;0;1696;0;0;0;0;9;0;854;0;0;0;0
12.12.19;23:35:00;1;307;9008;0;2;0;1744;0;0;0;0;3;0;1004;0;0;0;0;4;0;1391;0;0;0;0;5;0;3904;0;0;0;0;0;0;6;0;2752;0;0;0;0;0;0;7;0;1680;0;0;0;0;8;0;1696;0;0;0;0;9;0;854;0;0;0;0
12.12.19;23:30:00;1;308;8983;0;2;0;1744;0;0;0;0;3;0;1004;0;0;0;0;4;0;1391;0;0;0;0;5;0;3904;0;0;0;0;0;0;6;0;2752;0;0;0;0;0;0;7;0;1680;0;0;0;0;8;0;1696;0;0;0;0;9;0;854;0;0;0;0
12.12.19;23:25:00;1;307;8957;0;2;0;1744;0;0;0;0;3;0;1004;0;0;0;0;4;0;1391;0;0;0;0;5;0;3904;0;0;0;0;0;0;6;0;2752;0;0;0;0;0;0;7;0;1680;0;0;0;0;8;0;1696;0;0;0;0;9;0;854;0;0;0;0
12.12.19;23:20:00;1;305;8931;0;2;0;1744;0;0;0;0;3;0;1004;0;0;0;0;4;0;1391;0;0;0;0;5;0;3904;0;0;0;0;0;0;6;0;2752;0;0;0;0;0;0;7;0;1680;0;0;0;0;8;0;1696;0;0;0;0;9;0;854;0;0;0;0
12.12.19;23:15:00;1;306;8906;0;2;0;1744;0;0;0;0;3;0;1004;0;0;0;0;4;0;1391;0;0;0;0;5;0;3904;0;0;0;0;0;0;6;0;2752;0;0;0;0;0;0;7;0;1680;0;0;0;0;8;0;1696;0;0;0;0;9;0;854;0;0;0;0
12.12.19;23:10:00;1;906;8880;0;2;0;1744;0;0;0;0;3;0;1004;0;0;0;0;4;0;1391;0;0;0;0;5;0;3904;0;0;0;0;0;0;6;0;2752;0;0;0;0;0;0;7;0;1680;0;0;0;0;8;0;1696;0;0;0;0;9;0;854;0;0;0;0
12.12.19;23:05:00;1;335;8829;0;2;0;1744;0;0;0;0;3;0;1004;0;0;0;0;4;0;1391;0;0;0;0;5;0;3904;0;0;0;0;0;0;6;0;2752;0;0;0;0;0;0;7;0;1680;0;0;0;0;8;0;1696;0;0;0;0;9;0;854;0;0;0;0
12.12.19;23:00:00;1;352;8801;0;2;0;1744;0;0;0;0;3;0;1004;0;0;0;0;4;0;1391;0;0;0;0;5;0;3904;0;0;0;0;0;0;6;0;2752;0;0;0;0;0;0;7;0;1680;0;0;0;0;8;0;1696;0;0;0;0;9;0;854;0;0;0;0
12.12.19;22:55:00;1;353;8771;0;2;0;1744;0;0;0;0;3;0;1004;0;0;0;0;4;0;1391;0;0;0;0;5;0;3904;2;0;0;0;0;0;6;0;2752;2;0;0;0;0;0;7;0;1680;0;0;0;0;8;0;1696;0;0;0;0;9;0;854;0;0;0;0
12.12.19;22:50:00;1;321;8742;0;2;0;1744;0;0;0;0;3;0;1004;0;0;0;0;4;0;1391;0;0;0;0;5;0;3904;2;0;0;0;0;0;6;0;2752;2;0;0;0;0;0;7;0;1680;0;0;0;0;8;0;1696;0;0;0;0;9;0;854;0;0;0;0
12.12.19;22:45:00;1;309;8714;0;2;0;1744;0;0;0;0;3;0;1004;0;0;0;0;4;0;1391;0;0;0;0;5;0;3904;2;0;0;0;0;0;6;0;2752;2;0;0;0;0;0;7;0;1680;0;0;0;0;8;0;1696;0;0;0;0;9;0;854;0;0;0;0
12.12.19;22:40:00;1;309;8688;0;2;0;1744;0;0;0;0;3;0;1004;0;0;0;0;4;0;1391;0;0;0;0;5;0;3904;2;0;0;0;0;0;6;0;2752;2;0;0;0;0;0;7;0;1680;0;0;0;0;8;0;1696;0;0;0;0;9;0;854;0;0;0;0
12.12.19;22:35:00;1;310;8663;0;2;0;1744;0;0;0;0;3;0;1004;0;0;0;0;4;0;1391;0;0;0;0;5;0;3904;2;0;0;0;0;0;6;0;2752;2;0;0;0;0;0;7;0;1680;0;0;0;0;8;0;1696;0;0;0;0;9;0;854;0;0;0;0
12.12.19;22:30:00;1;309;8637;0;2;0;1744;0;0;0;0;3;0;1004;0;0;0;0;4;0;1391;0;0;0;0;5;0;3904;2;0;0;0;0;0;6;0;2752;2;0;0;0;0;0;7;0;1680;0;0;0;0;8;0;1696;0;0;0;0;9;0;854;0;0;0;0
12.12.19;22:25:00;1;317;8611;0;2;0;1744;0;0;0;0;3;0;1004;0;0;0;0;4;0;1391;0;0;0;0;5;0;3904;2;0;0;0;0;0;6;0;2752;2;0;0;0;0;0;7;0;1680;0;0;0;0;8;0;1696;0;0;0;0;9;0;854;0;0;0;0
12.12.19;22:20:00;1;316;8560;0;2;0;1744;0;0;0;0;3;0;1004;0;0;0;0;4;0;1391;0;0;0;0;5;0;3904;2;0;0;0;0;0;6;0;2752;2;0;0;0;0;0;7;0;1680;0;0;0;0;8;0;1696;0;0;0;0;9;0;854;0;0;0;0
12.12.19;22:15:00;1;380;8534;0;2;0;1744;0;0;0;0;3;0;1004;0;0;0;0;4;0;1391;0;0;0;0;5;0;3904;2;0;0;0;0;0;6;0;2752;2;0;0;0;0;0;7;0;1680;0;0;0;0;8;0;1696;0;0;0;0;9;0;854;0;0;0;0
12.12.19;22:10:00;1;473;8500;0;2;0;1744;0;0;0;0;3;0;1004;0;0;0;0;4;0;1391;0;0;0;0;5;0;3904;2;0;0;0;0;0;6;0;2752;2;0;0;0;0;0;7;0;1680;0;0;0;0;8;0;1696;0;0;0;0;9;0;854;0;0;0;0
12.12.19;22:05:00;1;466;8461;0;2;0;1744;0;0;0;0;3;0;1004;0;0;0;0;4;0;1391;0;0;0;0;5;0;3904;2;0;0;0;0;0;6;0;2752;2;0;0;0;0;0;7;0;1680;0;0;0;0;8;0;1696;0;0;0;0;9;0;854;0;0;0;0
12.12.19;22:00:00;1;449;8422;0;2;0;1744;0;0;0;0;3;0;1004;0;0;0;0;4;0;1391;0;0;0;0;5;0;3904;2;0;0;0;0;0;6;0;2752;2;0;0;0;0;0;7;0;1680;0;0;0;0;8;0;1696;0;0;0;0;9;0;854;0;0;0;0
12.12.19;21:55:00;1;423;8384;0;2;0;1744;0;0;0;0;3;0;1004;0;0;0;0;4;0;1391;0;0;0;0;5;0;3904;2;0;0;0;0;0;6;0;2752;2;0;0;0;0;0;7;0;1680;0;0;0;0;8;0;1696;0;0;0;0;9;0;854;0;0;0;0
12.12.19;21:50:00;1;441;8349;0;2;0;1744;0;0;0;0;3;0;1004;0;0;0;0;4;0;1391;0;0;0;0;5;0;3904;2;0;0;0;0;0;6;0;2752;2;0;0;0;0;0;7;0;1680;0;0;0;0;8;0;1696;0;0;0;0;9;0;854;0;0;0;0
12.12.19;21:45:00;1;413;8312;0;2;0;1744;0;0;0;0;3;0;1004;0;0;0;0;4;0;1391;0;0;0;0;5;0;3904;2;0;0;0;0;0;6;0;2752;2;0;0;0;0;0;7;0;1680;0;0;0;0;8;0;1696;0;0;0;0;9;0;854;0;0;0;0
12.12.19;21:40:00;1;393;8278;0;2;0;1744;0;0;0;0;3;0;1004;0;0;0;0;4;0;1391;0;0;0;0;5;0;3904;2;0;0;0;0;0;6;0;2752;2;0;0;0;0;0;7;0;1680;0;0;0;0;8;0;1696;0;0;0;0;9;0;854;0;0;0;0
12.12.19;21:35:00;1;305;8222;0;2;0;1744;0;0;0;0;3;0;1004;0;0;0;0;4;0;1391;0;0;0;0;5;0;3904;2;0;0;0;0;0;6;0;2752;2;0;0;0;0;0;7;0;1680;0;0;0;0;8;0;1696;0;0;0;0;9;0;854;0;0;0;0
12.12.19;21:30:00;1;324;8196;0;2;0;1744;0;0;0;0;3;0;1004;0;0;0;0;4;0;1391;0;0;0;0;5;0;3904;2;0;0;0;0;0;6;0;2752;2;0;0;0;0;0;7;0;1680;0;0;0;0;8;0;1696;0;0;0;0;9;0;854;0;0;0;0
12.12.19;21:25:00;1;356;8169;0;2;0;1744;0;0;0;0;3;0;1004;0;0;0;0;4;0;1391;0;0;0;0;5;0;3904;2;0;0;0;0;0;6;0;2752;2;0;0;0;0;0;7;0;1680;0;0;0;0;8;0;1696;0;0;0;0;9;0;854;0;0;0;0
12.12.19;21:20:00;1;430;8139;0;2;0;1744;0;0;0;0;3;0;1004;0;0;0;0;4;0;1391;0;0;0;0;5;0;3904;2;0;0;0;0;0;6;0;2752;2;0;0;0;0;0;7;0;1680;0;0;0;0;8;0;1696;0;0;0;0;9;0;854;0;0;0;0
12.12.19;21:15:00;1;334;8105;0;2;0;1744;0;0;0;0;3;0;1004;0;0;0;0;4;0;1391;0;0;0;0;5;0;3904;2;0;0;0;0;0;6;0;2752;2;0;0;0;0;0;7;0;1680;0;0;0;0;8;0;1696;0;0;0;0;9;0;854;0;0;0;0
12.12.19;21:10:00;1;341;8077;0;2;0;1744;0;0;0;0;3;0;1004;0;0;0;0;4;0;1391;0;0;0;0;5;0;3904;2;0;0;0;0;0;6;0;2752;2;0;0;0;0;0;7;0;1680;0;0;0;0;8;0;1696;0;0;0;0;9;0;854;0;0;0;0
12.12.19;21:05:00;1;343;8048;0;2;0;1744;0;0;0;0;3;0;1004;0;0;0;0;4;0;1391;0;0;0;0;5;0;3904;2;0;0;0;0;0;6;0;2752;2;0;0;0;0;0;7;0;1680;0;0;0;0;8;0;1696;0;0;0;0;9;0;854;0;0;0;0
12.12.19;21:00:00;1;293;8023;0;2;0;1744;0;0;0;0;3;0;1004;0;0;0;0;4;0;1391;0;0;0;0;5;0;3904;2;0;0;0;0;0;6;0;2752;2;0;0;0;0;0;7;0;1680;0;0;0;0;8;0;1696;0;0;0;0;9;0;854;0;0;0;0
12.12.19;20:55:00;1;630;7998;0;2;0;1744;0;0;0;0;3;0;1004;0;0;0;0;4;0;1391;0;0;0;0;5;0;3904;2;0;0;0;0;0;6;0;2752;2;0;0;0;0;0;7;0;1680;0;0;0;0;8;0;1696;0;0;0;0;9;0;854;0;0;0;0
12.12.19;20:50:00;1;292;7949;0;2;0;1744;0;0;0;0;3;0;1004;0;0;0;0;4;0;1391;0;0;0;0;5;0;3904;2;0;0;0;0;0;6;0;2752;2;0;0;0;0;0;7;0;1680;0;0;0;0;8;0;1696;0;0;0;0;9;0;854;0;0;0;0
12.12.19;20:45:00;1;292;7925;0;2;0;1744;0;0;0;0;3;0;1004;0;0;0;0;4;0;1391;0;0;0;0;5;0;3904;2;0;0;0;0;0;6;0;2752;2;0;0;0;0;0;7;0;1680;0;0;0;0;8;0;1696;0;0;0;0;9;0;854;0;0;0;0
12.12.19;20:40:00;1;292;7900;0;2;0;1744;0;0;0;0;3;0;1004;0;0;0;0;4;0;1391;0;0;0;0;5;0;3904;2;0;0;0;0;0;6;0;2752;2;0;0;0;0;0;7;0;1680;0;0;0;0;8;0;1696;0;0;0;0;9;0;854;0;0;0;0
12.12.19;20:35:00;1;293;7876;0;2;0;1744;0;0;0;0;3;0;1004;0;0;0;0;4;0;1391;0;0;0;0;5;0;3904;2;0;0;0;0;0;6;0;2752;2;0;0;0;0;0;7;0;1680;0;0;0;0;8;0;1696;0;0;0;0;9;0;854;0;0;0;0
12.12.19;20:30:00;1;324;7851;0;2;0;1744;0;0;0;0;3;0;1004;0;0;0;0;4;0;1391;0;0;0;0;5;0;3904;2;0;0;0;0;0;6;0;2752;2;0;0;0;0;0;7;0;1680;0;0;0;0;8;0;1696;0;0;0;0;9;0;854;0;0;0;0
12.12.19;20:25:00;1;339;7825;0;2;0;1744;0;0;0;0;3;0;1004;0;0;0;0;4;0;1391;0;0;0;0;5;0;3904;2;0;0;0;0;0;6;0;2752;2;0;0;0;0;0;7;0;1680;0;0;0;0;8;0;1696;0;0;0;0;9;0;854;0;0;0;0
12.12.19;20:20:00;1;338;7796;0;2;0;1744;0;0;0;0;3;0;1004;0;0;0;0;4;0;1391;0;0;0;0;5;0;3904;2;0;0;0;0;0;6;0;2752;2;0;0;0;0;0;7;0;1680;0;0;0;0;8;0;1696;0;0;0;0;9;0;854;0;0;0;0
12.12.19;20:15:00;1;385;7768;0;2;0;1744;0;0;0;0;3;0;1004;0;0;0;0;4;0;1391;0;0;0;0;5;0;3904;2;0;0;0;0;0;6;0;2752;2;0;0;0;0;0;7;0;1680;0;0;0;0;8;0;1696;0;0;0;0;9;0;854;0;0;0;0
12.12.19;20:10:00;1;298;7739;0;2;0;1744;0;0;0;0;3;0;1004;0;0;0;0;4;0;1391;0;0;0;0;5;0;3904;2;0;0;0;0;0;6;0;2752;2;0;0;0;0;0;7;0;1680;0;0;0;0;8;0;1696;0;0;0;0;9;0;854;0;0;0;0
12.12.19;20:05:00;1;298;7715;0;2;0;1744;0;0;0;0;3;0;1004;0;0;0;0;4;0;1391;0;0;0;0;5;0;3904;2;0;0;0;0;0;6;0;2752;2;0;0;0;0;0;7;0;1680;0;0;0;0;8;0;1696;0;0;0;0;9;0;854;0;0;0;0
12.12.19;20:00:00;1;888;7690;0;2;0;1744;0;0;0;0;3;0;1004;0;0;0;0;4;0;1391;0;0;0;0;5;0;3904;2;0;0;0;0;0;6;0;2752;2;0;0;0;0;0;7;0;1680;0;0;0;0;8;0;1696;0;0;0;0;9;0;854;0;0;0;0
12.12.19;19:55:00;1;293;7640;0;2;0;1744;0;0;0;0;3;0;1004;0;0;0;0;4;0;1391;0;0;0;0;5;0;3904;2;0;0;0;0;0;6;0;2752;2;0;0;0;0;0;7;0;1680;0;0;0;0;8;0;1696;0;0;0;0;9;0;854;0;0;0;0
12.12.19;19:50:00;1;331;7616;0;2;0;1744;0;0;0;0;3;0;1004;0;0;0;0;4;0;1391;0;0;0;0;5;0;3904;2;0;0;0;0;0;6;0;2752;2;0;0;0;0;0;7;0;1680;0;0;0;0;8;0;1696;0;0;0;0;9;0;854;0;0;0;0
12.12.19;19:45:00;1;470;7587;0;2;0;1744;0;0;0;0;3;0;1004;0;0;0;0;4;0;1391;0;0;0;0;5;0;3904;2;0;0;0;0;0;6;0;2752;2;0;0;0;0;0;7;0;1680;0;0;0;0;8;0;1696;0;0;0;0;9;0;854;0;0;0;0
12.12.19;19:40:00;1;585;7544;0;2;0;1744;0;0;0;0;3;0;1004;0;0;0;0;4;0;1391;0;0;0;0;5;0;3904;2;0;0;0;0;0;6;0;2752;2;0;0;0;0;0;7;0;1680;0;0;0;0;8;0;1696;0;0;0;0;9;0;854;0;0;0;0
12.12.19;19:35:00;1;573;7496;0;2;0;1744;0;0;0;0;3;0;1004;0;0;0;0;4;0;1391;0;0;0;0;5;0;3904;2;0;0;0;0;0;6;0;2752;2;0;0;0;0;0;7;0;1680;0;0;0;0;8;0;1696;0;0;0;0;9;0;854;0;0;0;0
12.12.19;19:30:00;1;677;7445;0;2;0;1744;0;0;0;0;3;0;1004;0;0;0;0;4;0;1391;0;0;0;0;5;0;3904;2;0;0;0;0;0;6;0;2752;2;0;0;0;0;0;7;0;1680;0;0;0;0;8;0;1696;0;0;0;0;9;0;854;0;0;0;0
12.12.19;19:25:00;1;570;7388;0;2;0;1744;0;0;0;0;3;0;1004;0;0;0;0;4;0;1391;0;0;0;0;5;0;3904;2;0;0;0;0;0;6;0;2752;2;0;0;0;0;0;7;0;1680;0;0;0;0;8;0;1696;0;0;0;0;9;0;854;0;0;0;0
12.12.19;19:20:00;1;525;7343;0;2;0;1744;0;0;0;0;3;0;1004;0;0;0;0;4;0;1391;0;0;0;0;5;0;3904;2;0;0;0;0;0;6;0;2752;2;0;0;0;0;0;7;0;1680;0;0;0;0;8;0;1696;0;0;0;0;9;0;854;0;0;0;0
12.12.19;19:15:00;1;462;7298;0;2;0;1744;0;0;0;0;3;0;1004;0;0;0;0;4;0;1391;0;0;0;0;5;0;3904;2;0;0;0;0;0;6;0;2752;2;0;0;0;0;0;7;0;1680;0;0;0;0;8;0;1696;0;0;0;0;9;0;854;0;0;0;0
12.12.19;19:10:00;1;1033;7261;0;2;0;1744;0;0;0;0;3;0;1004;0;0;0;0;4;0;1391;0;0;0;0;5;0;3904;2;0;0;0;0;0;6;0;2752;2;0;0;0;0;0;7;0;1680;0;0;0;0;8;0;1696;0;0;0;0;9;0;854;0;0;0;0
12.12.19;19:05:00;1;349;7208;0;2;0;1744;0;0;0;0;3;0;1004;0;0;0;0;4;0;1391;0;0;0;0;5;0;3904;2;0;0;0;0;0;6;0;2752;2;0;0;0;0;0;7;0;1680;0;0;0;0;8;0;1696;0;0;0;0;9;0;854;0;0;0;0
12.12.19;19:00:00;1;300;7179;0;2;0;1744;0;0;0;0;3;0;1004;0;0;0;0;4;0;1391;0;0;0;0;5;0;3904;2;0;0;0;0;0;6;0;2752;2;0;0;0;0;0;7;0;1680;0;0;0;0;8;0;1696;0;0;0;0;9;0;854;0;0;0;0
12.12.19;18:55:00;1;298;7154;0;2;0;1744;0;0;0;0;3;0;1004;0;0;0;0;4;0;1391;0;0;0;0;5;0;3904;2;0;0;0;0;0;6;0;2752;2;0;0;0;0;0;7;0;1680;0;0;0;0;8;0;1696;0;0;0;0;9;0;854;0;0;0;0
12.12.19;18:50:00;1;297;7129;0;2;0;1744;0;0;0;0;3;0;1004;0;0;0;0;4;0;1391;0;0;0;0;5;0;3904;2;0;0;0;0;0;6;0;2752;2;0;0;0;0;0;7;0;1680;0;0;0;0;8;0;1696;0;0;0;0;9;0;854;0;0;0;0
12.12.19;18:45:00;1;299;7104;0;2;0;1744;0;0;0;0;3;0;1004;0;0;0;0;4;0;1391;0;0;0;0;5;0;3904;2;0;0;0;0;0;6;0;2752;2;0;0;0;0;0;7;0;1680;0;0;0;0;8;0;1696;0;0;0;0;9;0;854;0;0;0;0
12.12.19;18:40:00;1;352;7079;0;2;0;1744;0;0;0;0;3;0;1004;0;0;0;0;4;0;1391;0;0;0;0;5;0;3904;2;0;0;0;0;0;6;0;2752;2;0;0;0;0;0;7;0;1680;0;0;0;0;8;0;1696;0;0;0;0;9;0;854;0;0;0;0
12.12.19;18:35:00;1;340;7050;0;2;0;1744;0;0;0;0;3;0;1004;0;0;0;0;4;0;1391;0;0;0;0;5;0;3904;2;0;0;0;0;0;6;0;2752;2;0;0;0;0;0;7;0;1680;0;0;0;0;8;0;1696;0;0;0;0;9;0;854;0;0;0;0
12.12.19;18:30:00;1;339;7021;0;2;0;1744;0;0;0;0;3;0;1004;0;0;0;0;4;0;1391;0;0;0;0;5;0;3904;2;0;0;0;0;0;6;0;2752;2;0;0;0;0;0;7;0;1680;0;0;0;0;8;0;1696;0;0;0;0;9;0;854;0;0;0;0
12.12.19;18:25:00;1;310;6993;0;2;0;1744;0;0;0;0;3;0;1004;0;0;0;0;4;0;1391;0;0;0;0;5;0;3904;2;0;0;0;0;0;6;0;2752;2;0;0;0;0;0;7;0;1680;0;0;0;0;8;0;1696;0;0;0;0;9;0;854;0;0;0;0
12.12.19;18:20:00;1;292;6967;0;2;0;1744;0;0;0;0;3;0;1004;0;0;0;0;4;0;1391;0;0;0;0;5;0;3904;2;0;0;0;0;0;6;0;2752;2;0;0;0;0;0;7;0;1680;0;0;0;0;8;0;1696;0;0;0;0;9;0;854;0;0;0;0
12.12.19;18:15:00;1;301;6943;0;2;0;1744;0;0;0;0;3;0;1004;0;0;0;0;4;0;1391;0;0;0;0;5;0;3904;2;0;0;0;0;0;6;0;2752;2;0;0;0;0;0;7;0;1680;0;0;0;0;8;0;1696;0;0;0;0;9;0;854;0;0;0;0
12.12.19;18:10:00;1;296;6894;0;2;0;1744;0;0;0;0;3;0;1004;0;0;0;0;4;0;1391;0;0;0;0;5;0;3904;2;0;0;0;0;0;6;0;2752;2;0;0;0;0;0;7;0;1680;0;0;0;0;8;0;1696;0;0;0;0;9;0;854;0;0;0;0
12.12.19;18:05:00;1;296;6869;0;2;0;1744;0;0;0;0;3;0;1004;0;0;0;0;4;0;1391;0;0;0;0;5;0;3904;2;0;0;0;0;0;6;0;2752;2;0;0;0;0;0;7;0;1680;0;0;0;0;8;0;1696;0;0;0;0;9;0;854;0;0;0;0
12.12.19;18:00:00;1;293;6845;0;2;0;1744;0;0;0;0;3;0;1004;0;0;0;0;4;0;1391;0;0;0;0;5;0;3904;2;0;0;0;0;0;6;0;2752;2;0;0;0;0;0;7;0;1680;0;0;0;0;8;0;1696;0;0;0;0;9;0;854;0;0;0;0
12.12.19;17:55:00;1;307;6820;0;2;0;1744;0;0;0;0;3;0;1004;0;0;0;0;4;0;1391;0;0;0;0;5;0;3904;2;0;0;0;0;0;6;0;2752;2;0;0;0;0;0;7;0;1680;0;0;0;0;8;0;1696;0;0;0;0;9;0;854;0;0;0;0
12.12.19;17:50:00;1;336;6794;0;2;0;1744;0;0;0;0;3;0;1004;0;0;0;0;4;0;1391;0;0;0;0;5;0;3904;2;0;0;0;0;0;6;0;2752;2;0;0;0;0;0;7;0;1680;0;0;0;0;8;0;1696;0;0;0;0;9;0;854;0;0;0;0
12.12.19;17:45:00;1;349;6765;0;2;0;1744;0;0;0;0;3;0;1004;0;0;0;0;4;0;1391;0;0;0;0;5;0;3904;2;0;0;0;0;0;6;0;2752;2;0;0;0;0;0;7;0;1680;0;0;0;0;8;0;1696;0;0;0;0;9;0;854;0;0;0;0
12.12.19;17:40:00;1;321;6736;0;2;0;1744;0;0;0;0;3;0;1004;0;0;0;0;4;0;1391;0;0;0;0;5;0;3904;2;0;0;0;0;0;6;0;2752;2;0;0;0;0;0;7;0;1680;0;0;0;0;8;0;1696;0;0;0;0;9;0;854;0;0;0;0
12.12.19;17:35:00;1;293;6709;0;2;0;1744;0;0;0;0;3;0;1004;0;0;0;0;4;0;1391;0;0;0;0;5;0;3904;2;0;0;0;0;0;6;0;2752;2;0;0;0;0;0;7;0;1680;0;0;0;0;8;0;1696;0;0;0;0;9;0;854;0;0;0;0
12.12.19;17:30:00;1;294;6684;0;2;0;1744;0;0;0;0;3;0;1004;0;0;0;0;4;0;1391;0;0;0;0;5;0;3904;2;0;0;0;0;0;6;0;2752;2;0;0;0;0;0;7;0;1680;0;0;0;0;8;0;1696;0;0;0;0;9;0;854;0;0;0;0
12.12.19;17:25:00;1;337;6660;0;2;0;1744;0;0;0;0;3;0;1004;0;0;0;0;4;0;1391;0;0;0;0;5;0;3904;2;0;0;0;0;0;6;0;2752;2;0;0;0;0;0;7;0;1680;0;0;0;0;8;0;1696;0;0;0;0;9;0;854;0;0;0;0
12.12.19;17:20:00;1;355;6607;0;2;0;1744;0;0;0;0;3;0;1004;0;0;0;0;4;0;1391;0;0;0;0;5;0;3904;2;0;0;0;0;0;6;0;2752;2;0;0;0;0;0;7;0;1680;0;0;0;0;8;0;1696;0;0;0;0;9;0;854;0;0;0;0
12.12.19;17:15:00;1;368;6577;0;2;0;1744;0;0;0;0;3;0;1004;0;0;0;0;4;0;1391;0;0;0;0;5;0;3904;2;0;0;0;0;0;6;0;2752;2;0;0;0;0;0;7;0;1680;0;0;0;0;8;0;1696;0;0;0;0;9;0;854;0;0;0;0
12.12.19;17:10:00;1;385;6546;0;2;0;1744;0;0;0;0;3;0;1004;0;0;0;0;4;0;1391;0;0;0;0;5;0;3904;2;0;0;0;0;0;6;0;2752;2;0;0;0;0;0;7;0;1680;0;0;0;0;8;0;1696;0;0;0;0;9;0;854;0;0;0;0
12.12.19;17:05:00;1;2271;6502;0;2;0;1744;0;0;0;0;3;0;1004;0;0;0;0;4;0;1391;0;0;0;0;5;0;3904;2;0;0;0;0;0;6;0;2752;2;0;0;0;0;0;7;0;1680;0;0;0;0;8;0;1696;0;0;0;0;9;0;854;0;0;0;0
12.12.19;17:00:00;1;2334;6307;0;2;0;1744;0;0;0;0;3;0;1004;0;0;0;0;4;0;1391;0;0;0;0;5;0;3904;2;0;0;0;0;0;6;0;2752;2;0;0;0;0;0;7;0;1680;0;0;0;0;8;0;1696;0;0;0;0;9;0;854;0;0;0;0
12.12.19;16:55:00;1;2090;6112;0;2;0;1744;0;0;0;0;3;0;1004;0;0;0;0;4;0;1391;0;0;0;0;5;0;3904;2;0;0;0;0;0;6;0;2752;2;0;0;0;0;0;7;0;1680;0;0;0;0;8;0;1696;0;0;0;0;9;0;854;0;0;0;0
12.12.19;16:50:00;1;1766;5975;0;2;0;1744;0;0;0;0;3;0;1004;0;0;0;0;4;0;1391;0;0;0;0;5;0;3904;2;0;0;0;0;0;6;0;2752;2;0;0;0;0;0;7;0;1680;0;0;0;0;8;0;1696;0;0;0;0;9;0;854;0;0;0;0
12.12.19;16:45:00;1;872;5836;0;2;0;1744;0;0;0;0;3;0;1004;0;0;0;0;4;0;1391;0;0;0;0;5;0;3904;2;0;0;0;0;0;6;0;2752;2;0;0;0;0;0;7;0;1680;0;0;0;0;8;0;1696;0;0;0;0;9;0;854;0;0;0;0
12.12.19;16:40:00;1;343;5797;0;2;0;1744;0;0;0;0;3;0;1004;0;0;0;0;4;0;1391;0;0;0;0;5;0;3904;2;0;0;0;0;0;6;0;2752;2;0;0;0;0;0;7;0;1680;0;0;0;0;8;0;1696;0;0;0;0;9;0;854;0;0;0;0
12.12.19;16:35:00;1;653;5769;0;2;0;1744;0;0;0;0;3;0;1004;0;0;133;6;4;0;1391;0;0;0;0;5;0;3904;2;0;0;0;0;0;6;0;2752;0;0;0;0;0;0;7;0;1680;0;0;0;0;8;0;1696;0;0;0;0;9;0;854;0;0;0;0
12.12.19;16:30:00;1;1908;5664;0;2;0;1744;6;0;283;10;3;0;1004;6;0;311;13;4;0;1391;0;0;39;4;5;0;3904;2;0;0;0;0;0;6;0;2752;0;0;0;0;0;0;7;0;1680;0;0;0;0;8;0;1696;0;0;0;0;9;0;854;0;0;0;0
12.12.19;16:25:00;1;299;5518;0;2;0;1744;6;0;315;10;3;0;1004;6;0;375;13;4;0;1391;2;0;89;8;5;0;3904;2;4;9;113;111;10;6;0;2752;2;0;0;0;0;0;7;0;1680;0;0;0;0;8;0;1696;0;0;0;0;9;0;854;0;0;0;0
12.12.19;16:20:00;1;2181;5492;0;2;0;1744;6;0;353;10;3;0;1004;6;1;413;13;4;0;1391;1;0;128;8;5;0;3904;2;0;0;344;384;21;6;0;2752;23;7;3;180;465;19;7;0;1680;0;0;221;10;8;0;1696;0;0;223;10;9;0;854;6;0;283;8
12.12.19;16:15:00;1;1499;5336;0;2;0;1744;6;0;371;10;3;0;1004;6;2;426;13;4;0;1391;1;0;157;8;5;0;3904;23;0;1;403;434;21;6;0;2752;23;5;4;252;531;20;7;0;1680;6;0;311;12;8;0;1696;6;0;317;12;9;0;854;6;0;333;8
12.12.19;16:10:00;1;2307;5206;0;2;0;1744;6;0;387;10;3;0;1004;6;1;468;13;4;0;1391;1;0;185;8;5;6;3904;26;0;1;410;609;21;6;0;2752;23;6;3;181;558;20;7;0;1680;6;0;358;13;8;0;1696;6;0;365;12;9;0;854;6;0;377;8
12.12.19;16:05:00;1;1139;5014;0;2;0;1744;6;0;402;10;3;1;1004;6;3;486;13;4;0;1391;1;0;214;9;5;0;3904;23;0;0;431;679;21;6;0;2752;23;6;4;271;579;21;7;0;1680;6;0;326;10;8;0;1696;6;0;405;13;9;0;854;6;0;423;9
12.12.19;16:00:00;1;271;4929;0;2;1;1744;6;5;408;10;3;2;1004;6;4;511;13;4;0;1391;3;0;221;9;5;79;3902;4;17;20;374;589;22;6;34;2752;1;13;18;517;494;22;7;0;1680;6;1;448;13;8;0;1696;6;1;451;13;9;1;854;6;1;492;9
12.12.19;15:55:00;1;240;4906;0;2;3;1743;6;8;407;10;3;0;1004;3;6;516;13;4;0;1391;3;0;209;9;5;97;3895;4;31;30;374;589;22;6;61;2748;4;17;20;471;446;22;7;0;1680;6;0;471;13;8;2;1696;4;2;465;13;9;2;854;6;3;510;9
12.12.19;15:50:00;1;620;4887;0;2;4;1743;6;8;419;10;3;2;1004;6;6;528;13;4;1;1391;3;1;200;9;5;116;3887;4;43;42;374;589;22;6;76;2743;4;42;48;471;446;22;7;5;1680;3;11;459;13;8;1;1696;6;6;479;13;9;2;854;6;6;504;9
12.12.19;15:45:00;1;228;4844;0;2;48;1743;4;76;368;11;3;5;1004;6;11;535;13;4;19;1390;3;20;199;9;5;157;3877;4;63;57;374;589;22;6;102;2736;4;40;49;471;447;22;7;16;1680;6;24;453;14;8;14;1696;6;22;452;13;9;0;854;6;0;570;9
12.12.19;15:40:00;1;228;4825;0;2;73;1739;4;100;377;11;3;6;1004;6;11;548;13;4;37;1389;3;39;198;9;5;201;3864;4;95;81;374;589;22;6;134;2727;4;71;81;470;446;22;7;48;1678;4;80;419;14;8;54;1695;4;83;411;13;9;8;854;3;15;533;9
12.12.19;15:35:00;1;228;4806;0;2;106;1733;4;133;381;11;3;49;1003;6;75;479;14;4;61;1386;3;64;198;9;5;257;3847;4;119;105;374;589;22;6;169;2716;4;88;93;470;447;22;7;83;1674;4;117;413;14;8;81;1690;4;109;451;13;9;11;853;6;14;562;9
12.12.19;15:30:00;1;234;4787;0;2;137;1724;4;165;385;11;3;76;999;4;111;451;14;4;87;1381;3;90;206;9;5;299;3825;4;144;123;374;589;22;6;200;2701;4;111;118;471;446;22;7;115;1668;4;145;393;14;8;115;1684;4;147;431;13;9;21;852;6;28;550;9
12.12.19;15:25:00;1;268;4767;0;2;152;1713;4;181;387;11;3;86;993;4;122;484;14;4;99;1374;5;103;221;9;5;316;3800;4;156;127;374;589;22;6;214;2685;4;139;141;471;446;22;7;134;1658;4;163;434;14;8;126;1674;4;159;414;13;9;27;850;6;37;548;9
12.12.19;15:20:00;1;272;4744;0;2;177;1700;4;205;378;11;3;102;986;4;140;490;14;4;127;1365;5;132;231;9;5;357;3773;4;177;154;374;589;22;6;239;2667;4;110;118;470;447;22;7;158;1647;4;196;442;14;8;160;1664;4;195;455;13;9;84;848;4;110;487;9
12.12.19;15:15:00;1;337;4722;0;2;189;1685;4;218;384;11;3;107;977;4;144;518;14;4;134;1355;5;140;226;9;5;374;3743;4;188;162;374;589;22;6;252;2647;4;141;147;470;447;22;7;183;1634;4;216;470;14;8;186;1650;4;215;466;13;9;95;841;4;121;506;9
12.12.19;15:10:00;1;287;4693;0;2;185;1670;4;214;377;11;3;108;968;4;147;509;14;4;136;1344;5;141;232;9;5;369;3712;4;186;159;374;589;22;6;250;2626;4;130;138;470;446;22;7;160;1618;4;202;471;14;8;165;1635;4;202;466;13;9;92;833;4;112;455;9
12.12.19;15:05:00;1;289;4669;0;2;142;1654;4;171;383;11;3;75;959;4;114;517;14;4;92;1332;5;96;211;9;5;319;3681;4;154;131;374;589;22;6;214;2605;4;109;120;470;447;22;7;119;1605;4;149;480;14;8;120;1621;4;154;479;13;9;57;825;4;73;468;9
12.12.19;15:00:00;1;687;4645;0;2;115;1642;4;143;369;11;3;64;953;4;99;491;14;4;74;1324;3;76;198;9;5;278;3655;4;130;115;374;589;22;6;184;2587;4;88;94;471;447;22;7;93;1595;4;123;402;13;8;94;1611;4;132;448;13;9;8;820;6;11;567;9
12.12.19;14:55:00;1;288;4597;0;2;122;1633;4;151;376;11;3;68;948;4;106;466;14;4;77;1318;3;80;199;9;5;301;3632;4;142;125;374;589;22;6;202;2572;4;119;125;471;447;22;7;104;1587;4;129;402;14;8;104;1603;4;135;448;13;9;9;820;0;14;445;7
12.12.19;14:50:00;1;289;4573;0;2;167;1622;4;198;388;11;3;97;942;4;132;504;14;4;119;1312;5;124;229;9;5;389;3607;4;191;168;390;589;22;6;268;2555;4;124;138;470;488;22;7;147;1578;4;174;414;13;8;145;1594;4;178;432;13;9;77;819;4;104;499;9
12.12.19;14:45:00;1;289;4549;0;2;252;1608;4;283;386;11;3;147;934;4;186;525;14;4;199;1302;5;207;232;9;5;559;3573;4;279;236;403;640;22;6;382;2532;4;163;202;471;570;22;7;239;1566;4;263;451;13;8;232;1582;4;267;464;13;9;121;813;4;150;520;9
12.12.19;14:40:00;1;294;4525;0;2;295;1588;4;329;393;11;3;182;922;4;220;517;13;4;242;1285;5;252;239;9;5;652;3525;4;315;274;414;673;22;6;407;2499;4;206;223;471;472;22;7;294;1546;4;333;480;13;8;303;1563;4;337;486;13;9;163;803;4;192;528;9
12.12.19;14:35:00;1;286;4499;0;2;229;1563;4;259;391;11;3;140;906;4;178;509;13;4;179;1265;5;186;234;9;5;479;3472;4;243;206;389;598;22;6;317;2465;4;151;155;471;446;22;7;225;1522;4;252;486;13;8;222;1538;4;256;489;13;9;127;789;4;153;507;9
12.12.19;14:30:00;1;269;4476;0;2;145;1544;4;174;385;11;3;83;895;4;118;482;13;4;97;1250;5;101;214;9;5;336;3433;4;166;139;374;589;22;6;227;2440;4;115;120;470;446;22;7;114;1503;4;146;477;13;8;112;1519;4;152;478;13;9;48;779;4;63;509;9
12.12.19;14:25:00;1;270;4453;0;2;97;1531;4;130;378;11;3;10;887;6;18;551;13;4;70;1242;3;73;200;9;5;276;3405;4;130;116;374;589;22;6;184;2421;4;95;101;471;447;22;7;78;1493;4;114;451;13;8;57;1510;4;99;481;13;9;19;774;6;27;526;9
12.12.19;14:20:00;1;252;4431;0;2;95;1523;4;122;388;11;3;8;886;6;12;554;13;4;62;1236;3;64;200;9;5;255;3382;4;121;106;374;589;22;6;172;2406;4;79;81;471;447;22;7;70;1486;4;106;455;13;8;68;1505;4;107;477;13;9;8;773;6;11;565;9
12.12.19;14:15:00;1;318;4410;0;2;72;1515;4;97;382;10;3;7;886;6;13;528;13;4;36;1231;3;37;200;9;5;204;3361;4;96;85;374;589;22;6;138;2392;4;66;74;470;446;22;7;43;1480;4;86;424;13;8;52;1499;4;87;424;12;9;7;773;4;10;549;9
12.12.19;14:10:00;1;228;4367;0;2;38;1509;4;54;395;10;3;4;885;6;9;539;13;4;19;1227;3;20;199;9;5;163;3344;4;70;62;374;589;22;6;112;2380;4;57;66;471;447;22;7;6;1477;6;7;496;13;8;7;1495;6;9;494;13;9;8;772;3;18;495;9
12.12.19;14:05:00;1;228;4348;0;2;6;1506;6;11;417;10;3;2;885;6;8;524;13;4;2;1226;3;2;200;10;5;126;3331;4;51;47;374;589;22;6;84;2371;4;45;53;471;446;22;7;0;1476;6;7;459;13;8;3;1494;6;8;478;13;9;2;771;6;8;499;9
12.12.19;14:00:00;1;229;4329;0;2;5;1505;6;10;419;11;3;0;885;6;0;551;13;4;3;1226;3;3;200;10;5;127;3320;4;49;47;374;589;22;6;83;2364;4;40;47;471;446;22;7;2;1476;6;7;481;13;8;3;1494;6;7;467;13;9;0;771;6;4;532;9
12.12.19;13:55:00;1;229;4310;0;2;6;1505;4;11;414;11;3;3;885;3;14;488;14;4;2;1225;3;2;200;10;5;126;3310;4;49;46;374;589;22;6;84;2357;4;37;44;471;446;22;7;3;1476;6;5;474;14;8;0;1493;6;0;501;13;9;1;771;6;8;491;9
12.12.19;13:50:00;1;229;4290;0;2;11;1504;3;19;403;11;3;2;884;6;6;523;14;4;2;1225;3;2;199;10;5;123;3300;4;45;47;374;589;22;6;80;2350;4;38;43;471;446;22;7;0;1476;6;0;481;14;8;1;1493;4;10;445;13;9;1;770;6;2;517;10
12.12.19;13:45:00;1;228;4271;0;2;58;1503;4;86;365;12;3;6;884;6;11;535;14;4;20;1225;3;20;198;10;5;186;3289;4;83;71;374;589;22;6;123;2343;4;60;70;470;446;22;7;11;1476;3;21;458;14;8;9;1493;3;11;482;14;9;1;770;6;6;532;10
12.12.19;13:40:00;1;270;4251;0;2;102;1498;4;129;370;12;3;40;884;6;63;513;14;4;61;1223;3;64;197;10;5;266;3273;4;121;108;374;589;22;6;174;2333;4;87;91;471;447;22;7;72;1474;4;107;422;14;8;80;1492;4;106;421;14;9;11;770;3;20;537;10
12.12.19;13:35:00;1;271;4229;0;2;122;1490;4;151;375;12;3;70;881;4;104;472;14;4;76;1218;3;79;198;10;5;298;3250;4;140;122;374;589;22;6;196;2318;4;97;99;471;447;22;7;94;1469;4;130;442;14;8;96;1486;4;134;456;14;9;22;769;6;31;527;10